• In Hungary
  • List of Countries
  • For 7 days
  • Water Temperature
  • Satellite Maps
  • Weather Map
  • News
  • Weather Widgets
  • user-avatar
    Login

    Hourly Weather Sveti Vlas

    Today, 23 October, Monday

    Time Temperature Precipitation Wind Pressure Humidity
    00:00 +13°C° 0 mm 4 mps 755 mmHg 81%
    01:00 +13°C° 0 mm 4 mps 754 mmHg 83%
    02:00 +13°C° 0 mm 4 mps 754 mmHg 85%
    03:00 +13°C° 0 mm 4 mps 753 mmHg 85%
    04:00 +13°C° 0 mm 4 mps 753 mmHg 86%
    05:00 +13°C° 0 mm 5 mps 753 mmHg 87%
    06:00 +14°C° 0 mm 5 mps 752 mmHg 85%
    07:00 +14°C° 0 mm 5 mps 752 mmHg 83%
    08:00 +15°C° 0 mm 6 mps 751 mmHg 80%
    09:00 +16°C° 0 mm 6 mps 751 mmHg 76%
    10:00 +17°C° 0 mm 6 mps 750 mmHg 71%
    11:00 +18°C° 0 mm 7 mps 750 mmHg 67%
    12:00 +19°C° 0 mm 6 mps 750 mmHg 66%
    13:00 +20°C° 0 mm 6 mps 749 mmHg 65%
    14:00 +20°C° 0 mm 6 mps 748 mmHg 66%
    15:00 +19°C° 0 mm 6 mps 748 mmHg 69%
    16:00 +19°C° 0 mm 5 mps 748 mmHg 72%
    17:00 +17°C° 0 mm 5 mps 748 mmHg 75%
    18:00 +17°C° 0 mm 5 mps 747 mmHg 78%
    19:00 +16°C° 0 mm 5 mps 747 mmHg 81%
    20:00 +16°C° 0 mm 5 mps 747 mmHg 84%
    21:00 +16°C° 0 mm 5 mps 746 mmHg 84%
    22:00 +16°C° 0 mm 5 mps 746 mmHg 84%
    23:00 +16°C° 0 mm 5 mps 746 mmHg 83%

    Tomorrow, 24 October, Tuesday

    Time Temperature Precipitation Wind Pressure Humidity
    00:00 +17°C° 0.1 mm 4 mps 746 mmHg 83%
    01:00 +17°C° 0.1 mm 4 mps 745 mmHg 83%
    02:00 +17°C° 0.1 mm 4 mps 745 mmHg 83%
    03:00 +17°C° 0.4 mm 4 mps 745 mmHg 83%
    04:00 +16°C° 0.4 mm 5 mps 745 mmHg 84%
    05:00 +16°C° 0.4 mm 5 mps 745 mmHg 85%
    06:00 +16°C° 0.6 mm 5 mps 745 mmHg 83%
    07:00 +16°C° 0.6 mm 6 mps 745 mmHg 80%
    08:00 +17°C° 0.6 mm 7 mps 746 mmHg 78%
    09:00 +18°C° 0.2 mm 7 mps 746 mmHg 72%
    10:00 +18°C° 0.2 mm 7 mps 746 mmHg 67%
    11:00 +20°C° 0.2 mm 8 mps 747 mmHg 61%
    12:00 +21°C° 0.2 mm 7 mps 747 mmHg 60%
    13:00 +21°C° 0.2 mm 7 mps 747 mmHg 59%
    14:00 +21°C° 0.2 mm 7 mps 747 mmHg 58%
    15:00 +20°C° 0.3 mm 6 mps 748 mmHg 62%
    16:00 +19°C° 0.3 mm 6 mps 748 mmHg 66%
    17:00 +19°C° 0.3 mm 6 mps 748 mmHg 70%
    18:00 +17°C° 0.7 mm 6 mps 749 mmHg 74%
    19:00 +17°C° 0.7 mm 6 mps 750 mmHg 77%
    20:00 +16°C° 0.7 mm 6 mps 750 mmHg 81%
    21:00 +16°C° 0.7 mm 6 mps 751 mmHg 82%
    22:00 +16°C° 0.7 mm 6 mps 751 mmHg 83%
    23:00 +16°C° 0.7 mm 6 mps 752 mmHg 84%

    Day after tomorrow, 25 October, Wednesday

    Time Temperature Precipitation Wind Pressure Humidity
    00:00 +15°C° 0.7 mm 7 mps 752 mmHg 85%
    01:00 +15°C° 0.7 mm 8 mps 753 mmHg 85%
    02:00 +15°C° 0.7 mm 8 mps 753 mmHg 86%
    03:00 +13°C° 1.4 mm 9 mps 754 mmHg 85%
    04:00 +12°C° 1.4 mm 10 mps 754 mmHg 84%
    05:00 +11°C° 1.4 mm 11 mps 754 mmHg 82%
    06:00 +11°C° 1.6 mm 11 mps 755 mmHg 82%
    07:00 +9°C° 1.6 mm 11 mps 756 mmHg 81%
    08:00 +8°C° 1.6 mm 11 mps 756 mmHg 80%
    09:00 +8°C° 0.3 mm 11 mps 757 mmHg 80%
    10:00 +7°C° 0.3 mm 11 mps 757 mmHg 79%
    11:00 +7°C° 0.3 mm 11 mps 758 mmHg 79%
    12:00 +7°C° 0.2 mm 11 mps 758 mmHg 78%
    13:00 +7°C° 0.2 mm 10 mps 759 mmHg 78%
    14:00 +7°C° 0.2 mm 10 mps 759 mmHg 78%
    15:00 +7°C° 0.2 mm 10 mps 759 mmHg 78%
    16:00 +7°C° 0.2 mm 10 mps 760 mmHg 78%
    17:00 +7°C° 0.2 mm 10 mps 760 mmHg 78%
    18:00 +7°C° 0.2 mm 10 mps 761 mmHg 78%
    19:00 +7°C° 0.2 mm 10 mps 761 mmHg 77%
    20:00 +7°C° 0.2 mm 9 mps 762 mmHg 77%
    21:00 +7°C° 0.2 mm 9 mps 762 mmHg 75%
    22:00 +7°C° 0.2 mm 9 mps 762 mmHg 74%
    23:00 +6°C° 0.2 mm 8 mps 763 mmHg 73%

    26 October, Thursday

    Time Temperature Precipitation Wind Pressure Humidity
    00:00 +6°C° 0 mm 8 mps 763 mmHg 75%
    01:00 +5°C° 0 mm 7 mps 763 mmHg 76%
    02:00 +5°C° 0 mm 7 mps 763 mmHg 78%
    03:00 +5°C° 0 mm 7 mps 763 mmHg 80%
    04:00 +4°C° 0 mm 6 mps 763 mmHg 81%
    05:00 +4°C° 0 mm 6 mps 763 mmHg 83%
    06:00 +4°C° 0 mm 6 mps 764 mmHg 82%
    07:00 +5°C° 0 mm 6 mps 764 mmHg 80%
    08:00 +6°C° 0 mm 5 mps 764 mmHg 78%
    09:00 +8°C° 0 mm 5 mps 764 mmHg 73%
    10:00 +10°C° 0 mm 5 mps 764 mmHg 69%
    11:00 +13°C° 0 mm 4 mps 764 mmHg 64%
    12:00 +14°C° 0 mm 4 mps 764 mmHg 61%
    13:00 +16°C° 0 mm 3 mps 764 mmHg 58%
    14:00 +16°C° 0 mm 2 mps 764 mmHg 56%
    15:00 +16°C° 0 mm 2 mps 763 mmHg 60%
    16:00 +15°C° 0 mm 2 mps 763 mmHg 63%
    17:00 +14°C° 0 mm 1 mps 763 mmHg 67%
    18:00 +13°C° 0 mm 1 mps 763 mmHg 71%
    19:00 +12°C° 0 mm 1 mps 763 mmHg 74%
    20:00 +12°C° 0 mm 1 mps 763 mmHg 77%
    21:00 +10°C° 0 mm 2 mps 763 mmHg 78%
    22:00 +10°C° 0 mm 2 mps 763 mmHg 79%
    23:00 +10°C° 0 mm 2 mps 763 mmHg 81%

    27 October, Friday

    Time Temperature Precipitation Wind Pressure Humidity
    00:00 +10°C° 0 mm 2 mps 762 mmHg 82%
    01:00 +9°C° 0 mm 2 mps 762 mmHg 83%
    02:00 +9°C° 0 mm 2 mps 762 mmHg 84%
    03:00 +9°C° 0 mm 2 mps 761 mmHg 84%
    04:00 +9°C° 0 mm 2 mps 761 mmHg 85%
    05:00 +9°C° 0 mm 2 mps 760 mmHg 85%
    06:00 +9°C° 0 mm 2 mps 760 mmHg 82%
    07:00 +10°C° 0 mm 2 mps 760 mmHg 80%
    08:00 +10°C° 0 mm 2 mps 760 mmHg 77%
    09:00 +13°C° 0 mm 2 mps 760 mmHg 69%
    10:00 +16°C° 0 mm 2 mps 759 mmHg 61%
    11:00 +18°C° 0 mm 3 mps 759 mmHg 53%
    12:00 +19°C° 0 mm 3 mps 758 mmHg 50%
    13:00 +19°C° 0 mm 3 mps 757 mmHg 48%
    14:00 +20°C° 0 mm 3 mps 757 mmHg 45%
    15:00 +19°C° 0 mm 3 mps 756 mmHg 49%
    16:00 +18°C° 0 mm 3 mps 756 mmHg 54%
    17:00 +17°C° 0 mm 3 mps 755 mmHg 58%
    18:00 +16°C° 0 mm 3 mps 755 mmHg 61%
    19:00 +14°C° 0 mm 3 mps 755 mmHg 63%
    20:00 +14°C° 0 mm 3 mps 754 mmHg 65%
    21:00 +13°C° 0 mm 3 mps 754 mmHg 66%
    22:00 +13°C° 0 mm 3 mps 753 mmHg 67%
    23:00 +12°C° 0 mm 3 mps 753 mmHg 68%

    28 October, Saturday

    Time Temperature Precipitation Wind Pressure Humidity
    00:00 +12°C° 0 mm 3 mps 752 mmHg 68%
    01:00 +12°C° 0 mm 3 mps 752 mmHg 69%
    02:00 +12°C° 0 mm 4 mps 751 mmHg 69%
    03:00 +12°C° 0 mm 3 mps 751 mmHg 68%
    04:00 +12°C° 0 mm 3 mps 750 mmHg 68%
    05:00 +12°C° 0 mm 3 mps 749 mmHg 68%
    06:00 +12°C° 0 mm 3 mps 749 mmHg 67%
    07:00 +13°C° 0 mm 3 mps 749 mmHg 66%
    08:00 +13°C° 0 mm 3 mps 749 mmHg 65%
    09:00 +14°C° 0 mm 4 mps 749 mmHg 61%
    10:00 +17°C° 0 mm 4 mps 749 mmHg 56%
    11:00 +17°C° 0 mm 5 mps 749 mmHg 52%
    12:00 +16°C° 0.1 mm 6 mps 749 mmHg 57%
    13:00 +15°C° 0.1 mm 7 mps 749 mmHg 62%
    14:00 +13°C° 0.1 mm 9 mps 749 mmHg 67%
    15:00 +12°C° 0.3 mm 8 mps 750 mmHg 69%
    16:00 +11°C° 0.3 mm 8 mps 750 mmHg 71%
    17:00 +10°C° 0.3 mm 7 mps 750 mmHg 73%
    18:00 +10°C° 0.3 mm 6 mps 751 mmHg 75%
    19:00 +10°C° 0.3 mm 5 mps 751 mmHg 76%
    20:00 +11°C° 0.3 mm 4 mps 752 mmHg 77%
    21:00 +10°C° 0 mm 4 mps 752 mmHg 77%
    22:00 +10°C° 0 mm 4 mps 752 mmHg 77%
    23:00 +8°C° 0 mm 4 mps 752 mmHg 77%

    29 October, Sunday

    Time Temperature Precipitation Wind Pressure Humidity
    00:00 +8°C° 0 mm 4 mps 752 mmHg 78%
    01:00 +8°C° 0 mm 4 mps 752 mmHg 79%
    02:00 +7°C° 0 mm 4 mps 752 mmHg 79%
    03:00 +8°C° 0 mm 3 mps 752 mmHg 80%
    04:00 +8°C° 0 mm 3 mps 751 mmHg 80%
    05:00 +8°C° 0 mm 2 mps 751 mmHg 80%
    06:00 +8°C° 0 mm 2 mps 751 mmHg 79%
    07:00 +9°C° 0 mm 2 mps 751 mmHg 78%
    08:00 +9°C° 0 mm 2 mps 751 mmHg 77%
    09:00 +9°C° 0.1 mm 2 mps 751 mmHg 74%
    10:00 +10°C° 0.1 mm 2 mps 751 mmHg 71%
    11:00 +11°C° 0.1 mm 3 mps 750 mmHg 68%
    12:00 +10°C° 0.5 mm 3 mps 750 mmHg 70%
    13:00 +10°C° 0.5 mm 4 mps 749 mmHg 71%
    14:00 +9°C° 0.5 mm 5 mps 748 mmHg 73%
    15:00 +9°C° 1.3 mm 5 mps 748 mmHg 75%
    16:00 +8°C° 1.3 mm 6 mps 747 mmHg 77%
    17:00 +8°C° 1.3 mm 6 mps 747 mmHg 79%
    18:00 +8°C° 1.2 mm 7 mps 747 mmHg 79%
    19:00 +8°C° 1.2 mm 7 mps 747 mmHg 80%
    20:00 +7°C° 1.2 mm 8 mps 746 mmHg 80%
    21:00 +7°C° 0.9 mm 8 mps 747 mmHg 80%
    22:00 +7°C° 0.9 mm 8 mps 747 mmHg 79%
    23:00 +7°C° 0.9 mm 8 mps 747 mmHg 79%
    Show more